Location: Cañardo
(42.4137°N, 0.1396°W)
Time: 00:23:41
(UTC+00:00)

Daily predictions for brighter satellites

Satellite Brightness Start Highest point End
(mag) Time Altitude Azimuth Time Altitude Azimuth Time Altitude Azimuth
CENTAUR R/B 4.1 02:27:13 26° E 02:27:13 26° E 02:31:44 10° NE
Cosmos 2082 Rocket 3.7 02:38:49 33° ENE 02:38:49 33° ENE 02:42:28 10° NE
ADEOS II 4.4 02:41:24 10° N 02:42:28 16° N 02:42:28 16° N
CZ-2C R/B 4.2 02:47:33 10° NE 02:51:08 28° E 02:51:08 28° E
Atlas Centaur 2 4.4 02:57:55 24° SSE 02:57:55 24° SSE 03:01:37 10° SE
COSMOS 2406 4.0 03:01:52 47° NNE 03:01:52 47° NNE 03:05:52 10° NNE
NOSS 3-2 (A) 4.0 03:01:33 45° E 03:01:33 45° E 03:06:45 10° NE
ATLAS CENTAUR R/B 3.6 03:08:06 25° NNE 03:08:06 25° NNE 03:10:13 10° NNE
H-2A ROCKET BODY 4.4 03:15:40 16° SSE 03:15:40 16° SSE 03:20:12 10° SE
Meteor 1-11 Rocket 3.9 03:12:39 10° N 03:18:13 75° NNE 03:18:13 75° NNE
Cosmos 1980 Rocket 3.1 03:23:06 38° SE 03:23:06 38° SE 03:26:28 10° SSE
Cosmos 44 Rocket 4.4 03:26:24 35° NNE 03:26:24 35° NNE 03:29:16 10° NNE
PAYLOAD A 4.2 03:23:21 10° NNE 03:28:14 65° ESE 03:28:15 65° ESE
SL-19 R/B 4.4 03:23:10 10° NNE 03:29:20 80° ESE 03:30:18 63° S
CBERS-1 4.3 03:29:44 10° N 03:33:56 59° N 03:33:56 59° N
Cosmos 2173 Rocket 4.0 03:33:20 34° S 03:36:08 73° E 03:42:12 10° NNE
Cosmos 1515 Rocket 4.0 03:37:57 61° NE 03:37:57 61° NE 03:41:51 10° NNE
Cosmos 1461 3.7 03:42:22 46° NE 03:42:22 46° NE 03:45:22 10° NNE
ALOS 2.9 03:40:18 10° N 03:43:37 44° NNW 03:43:37 44° NNW
Cosmos 2278 4.0 03:39:24 10° NNW 03:45:03 67° ENE 03:50:39 10° SSE
SL-16 R/B 3.8 03:40:13 10° N 03:45:23 34° ENE 03:50:30 10° ESE
ATLAS 3B CENTAUR R/B 4.3 03:43:26 30° SSW 03:46:45 37° S 03:57:33 10° ESE
FENGYUN 3A 4.0 03:46:57 10° N 03:51:35 48° NW 03:51:35 48° NW
Cosmos 1833 Rocket 4.2 03:54:43 22° NW 03:54:43 22° NW 03:58:07 10° N
CZ-3 R/B 4.2 03:39:43 28° SW 03:54:05 45° S 04:03:44 10° ESE
METEOR-M 4.1 03:49:03 10° NNE 03:54:26 85° ESE 03:56:56 33° S
IRS-P3 4.2 03:51:45 10° NNE 03:57:07 76° ESE 04:00:46 21° S
Cosmos 1741 Rocket 4.1 03:53:17 10° NNW 03:58:32 76° ENE 04:03:44 10° SSE
Cosmos 1331 Rocket 4.1 04:00:12 28° S 04:02:54 74° ESE 04:08:04 10° NNE
MINOTAUR IV R/B 4.4 04:02:45 10° NNW 04:07:16 87° WSW 04:11:44 10° SSE
YAOGAN 6 3.3 04:03:58 10° NNE 04:07:31 52° E 04:09:36 22° S
BREEZE-M DEB (TANK) 4.5 04:06:58 33° SW 04:07:56 34° SSW 04:21:34 10° SSE
Lacrosse 5 rocket 4.1 04:07:08 10° SSE 04:10:09 18° ESE 04:13:11 10° E
Meteor 1-27 Rocket 4.1 04:10:33 42° W 04:11:26 45° WNW 04:17:05 10° N
Lacrosse 4 Rocket 2.0 04:08:02 10° NNW 04:12:23 59° ENE 04:16:46 10° SE
Cosmos 1484 Rocket 2.9 04:08:45 10° NNE 04:12:44 78° ESE 04:14:54 26° S
CZ-2C R/B 2.5 04:07:49 10° SSE 04:13:03 85° WSW 04:18:27 10° NNW
ARIANE 5 R/B 2.3 04:09:43 10° N 04:14:45 78° WNW 04:18:02 22° SSW
Helios 1B rocket 2.6 04:11:23 10° N 04:15:11 51° WNW 04:15:11 51° WNW
CENTAUR R/B 2.6 04:14:25 38° WSW 04:16:31 56° NW 04:23:25 10° NNE
Cosmos 2100 Rocket 4.1 04:15:24 30° SW 04:18:08 50° WNW 04:24:08 10° N
Meteor 1-29 3.9 04:15:03 10° NNE 04:18:15 46° E 04:21:26 10° S
Cosmos 1110 Rocket 3.9 04:16:35 30° SSW 04:19:13 73° WNW 04:24:25 10° NNE
ERS-1 4.4 04:14:08 10° N 04:19:21 76° WNW 04:23:49 14° SSW
Cosmos 2016 Rocket 3.9 04:13:29 10° S 04:19:51 81° W 04:26:16 10° N
CZ-2C R/B 3.8 04:15:07 10° NNE 04:20:43 57° E 04:26:01 10° S
Cosmos 2082 Rocket 2.9 04:20:42 31° WNW 04:21:24 32° NW 04:26:24 10° N
SL-08 R/B 4.4 04:16:23 10° S 04:22:28 90° WSW 04:28:40 10° N
Okean 1 3.5 04:23:13 47° W 04:23:18 47° W 04:27:13 10° N
Cosmos 1452 Rocket 3.9 04:24:11 35° WSW 04:25:37 43° WNW 04:30:40 10° N
USA 276 2.0 04:26:13 64° S 04:26:27 68° SSE 04:29:27 10° ENE
Meteor 1-18 Rocket 4.2 04:21:23 10° S 04:27:05 84° E 04:32:43 10° N
Cosmos 1869 Rocket 3.6 04:24:56 10° N 04:29:22 82° E 04:33:44 10° S
Cosmos 2360 Rocket 3.8 04:24:14 10° N 04:29:23 35° ENE 04:34:30 10° ESE
CZ-2C R/B 3.1 04:25:40 10° N 04:29:58 31° WNW 04:30:30 30° W
Envisat 3.0 04:26:04 10° NNE 04:31:11 88° ESE 04:36:16 10° SSW
Cosmos 968 Rocket 4.3 04:26:32 10° N 04:31:35 52° ENE 04:36:33 10° SE
Delta 2 Rocket 4.5 04:32:44 21° SSW 04:32:47 21° SSW 04:35:23 10° SE
Cosmos 1816 Rocket 4.4 04:30:11 10° NNW 04:36:18 66° W 04:42:21 10° S
Cosmos 489 Rocket 4.5 04:31:55 10° NNW 04:38:13 86° ENE 04:44:25 10° SSE
Cosmos 2061 Rocket 3.9 04:34:06 10° SSW 04:40:14 67° W 04:46:26 10° N
SL-24 R/B - RUBIN 2 4.1 04:38:53 30° W 04:40:22 40° NW 04:44:29 10° NNE
DELTA 2 R/B (1) 3.9 04:37:45 26° W 04:40:40 53° SSW 04:46:05 10° ESE
H-2A R/B 2.7 04:38:23 10° NNE 04:42:03 76° ESE 04:45:44 10° S
Atlas Centaur 2 4.5 04:40:27 15° SW 04:43:06 17° SSW 04:47:52 10° S
ATLAS CENTAUR R/B 3.9 04:44:03 11° NW 04:45:17 12° NNW 04:46:59 10° N
PSLV R/B 3.8 04:43:01 10° NNE 04:47:19 70° ESE 04:51:33 10° S
Cosmos 1733 Rocket 4.4 04:44:05 10° N 04:48:19 44° ENE 04:52:30 10° SSE
DELTA 2 DEB (DPAF) 4.4 04:44:59 10° S 04:49:09 41° W 04:53:20 10° NNW
Meteor 2-4 Rocket 3.7 04:43:46 10° SSW 04:49:30 73° W 04:55:07 10° N
X-37B 1.0 04:49:24 33° WSW 04:50:04 39° SSW 04:52:48 10° SE
Cosmos 1933 Rocket 4.4 04:47:23 10° NNW 04:51:06 27° W 04:54:48 10° SSW
CZ-2D R/B 3.9 04:47:44 10° N 04:51:24 36° WNW 04:54:22 15° SW
NOSS 3-2 (A) 4.2 04:48:58 20° W 04:51:59 33° NW 04:57:45 10° NNE
NOSS 3-2 (C) 3.5 04:48:33 18° WSW 04:52:31 54° NW 04:58:43 10° NNE
Cosmos 482 Debris 4.5 04:53:01 17° WNW 04:55:51 84° SW 05:01:36 10° SE
SL-08 R/B 3.6 04:52:29 10° S 04:56:57 44° W 05:01:31 10° NNW
Cosmos 1975 2.9 04:53:58 10° NNW 04:57:50 50° W 05:01:39 10° S
Cosmos 2322 Rocket 2.2 04:53:18 10° NNW 04:59:01 88° ENE 05:04:40 10° SSE
Cosmos 2237 4.2 04:55:07 10° NNW 05:00:51 84° WSW 05:06:32 10° SSE
Cosmos 2233 Rocket 4.0 04:54:55 10° SSW 05:01:11 65° W 05:07:27 10° N
Cosmos 1242 Rocket 2.2 04:58:15 10° NNW 05:01:40 70° W 05:05:01 10° S
OPS 6432 4.3 04:59:06 10° NW 05:02:10 65° WSW 05:05:49 10° SSE
CZ-2C R/B 2.7 04:58:24 10° N 05:02:14 81° WNW 05:06:06 10° SSW
Cosmos 1980 Rocket 3.8 05:05:11 14° WSW 05:05:11 14° WSW 05:06:56 10° SW
USA 238 DEB 3.8 05:02:18 11° WSW 05:08:18 51° NW 05:14:58 10° NNE
USA 238 3.8 05:02:21 11° WSW 05:08:24 52° NW 05:15:04 10° NNE
COSMOS 2455 3.2 05:02:23 10° NNW 05:08:25 69° ENE 05:14:24 10° SE
SKYMED 2 3.8 05:06:27 10° SSE 05:10:46 77° ENE 05:15:07 10° N
Cosmos 1805 3.4 05:06:59 10° N 05:10:52 76° E 05:14:43 10° SSE
Tsikada Rocket 4.2 05:06:27 10° NNW 05:12:25 48° W 05:18:18 10° SSW
FALCON 9 DEB 3.9 05:09:58 10° SSW 05:13:00 46° SE 05:16:05 10° ENE
ATLAS 5 CENTAUR R/B 4.4 05:09:20 10° N 05:13:04 19° NE 05:17:17 10° E
GP-B 4.2 05:12:28 10° SW 05:16:03 24° W 05:19:39 10° NNW
CZ-4B R/B 3.7 05:11:14 10° NNE 05:16:32 85° ESE 05:21:48 10° SSW
SL-27 R/B 4.3 05:16:46 10° S 05:20:00 35° ESE 05:23:14 10° NE
Cosmos 1733 3.0 05:18:06 10° NNW 05:21:48 69° W 05:25:31 10° S
USA 290 2.2 05:22:55 10° NNW 05:26:08 89° ENE 05:29:19 10° SSE
Meteor 1-13 Rocket 4.4 05:21:46 10° S 05:27:21 81° E 05:32:54 10° NNE
Cosmos 1862 Rocket 3.6 05:23:37 10° SSW 05:28:05 72° W 05:32:32 10° N
SL-16 R/B 2.7 05:24:19 10° NW 05:29:28 37° WSW 05:34:35 10° S
NOAA 11 4.4 05:25:50 10° N 05:31:07 50° WNW 05:36:20 10° SW
Cosmos 1766 3.9 05:27:32 10° N 05:31:28 61° E 05:35:20 10° SSE
USA 234 3.4 05:27:01 10° NE 05:33:36 82° SE 05:40:09 10° SW
SJ 16-02 3.2 05:32:16 10° N 05:36:17 34° ENE 05:40:17 10° SE
